Time,TemperatureF,DewpointF,PressureIn,WindDirection,WindDirectionDegrees,WindSpeedMPH,WindSpeedGustMPH,Humidity,HourlyPrecipIn,Conditions,Clouds,dailyrainin,SoftwareType,DateUTC
2013-09-13 09:06:00,63.3,63.0,30.22,NE,45,0.0,0.7,99,0.11,,,0.11,pywws,2013-09-13 08:06:00,
2013-09-13 09:07:00,63.3,63.0,30.22,NE,45,0.0,0.7,99,0.11,,,0.11,pywws,2013-09-13 08:07:00,
2013-09-13 09:08:00,63.3,63.0,30.22,NW,315,0.0,0.7,99,0.11,,,0.11,pywws,2013-09-13 08:08:00,
2013-09-13 09:09:00,63.3,63.0,30.21,NW,315,0.0,0.7,99,0.11,,,0.11,pywws,2013-09-13 08:09:00,
2013-09-13 09:11:00,63.3,63.0,30.22,East,90,0.0,0.0,99,0.12,,,0.12,pywws,2013-09-13 08:11:00,
2013-09-13 09:17:00,63.3,63.0,30.22,West,270,0.0,0.7,99,0.12,,,0.12,pywws,2013-09-13 08:17:00,
2013-09-13 09:18:00,63.3,63.0,30.22,West,270,0.0,0.7,99,0.12,,,0.12,pywws,2013-09-13 08:18:00,
2013-09-13 09:34:00,63.9,63.6,30.22,East,90,0.0,0.0,99,0.12,,,0.12,pywws,2013-09-13 08:34:00,
2013-09-13 09:39:00,64.0,63.8,30.22,South,180,0.0,0.0,99,0.12,,,0.12,pywws,2013-09-13 08:39:00,
2013-09-13 09:45:00,64.0,63.8,30.22,North,0,0.0,0.0,99,0.12,,,0.12,pywws,2013-09-13 08:45:00,
2013-09-13 11:58:00,68.2,66.4,30.22,NW,315,0.0,1.6,94,0.00,,,0.12,pywws,2013-09-13 10:58:00,
2013-09-13 12:04:00,68.4,66.3,30.21,North,0,0.0,0.0,93,0.00,,,0.12,pywws,2013-09-13 11:04:00,
2013-09-13 12:10:00,68.4,66.3,30.21,North,0,0.0,0.0,93,0.00,,,0.12,pywws,2013-09-13 11:10:00,
2013-09-13 12:15:00,69.1,66.3,30.21,NW,315,0.0,0.0,91,0.00,,,0.12,pywws,2013-09-13 11:15:00,
2013-09-13 12:21:00,69.4,65.4,30.21,West,270,0.0,2.2,87,0.00,,,0.12,pywws,2013-09-13 11:21:00,
2013-09-13 12:26:00,69.4,65.4,30.21,West,270,0.7,3.1,87,0.00,,,0.12,pywws,2013-09-13 11:26:00,
2013-09-13 12:32:00,69.4,65.4,30.22,West,270,0.0,2.2,87,0.00,,,0.12,pywws,2013-09-13 11:32:00,
2013-09-13 12:37:00,69.1,64.7,30.22,NW,315,0.0,1.6,86,0.00,,,0.12,pywws,2013-09-13 11:37:00,
2013-09-13 12:43:00,69.1,65.0,30.21,South,180,0.0,1.6,87,0.00,,,0.12,pywws,2013-09-13 11:43:00,
2013-09-13 12:49:00,69.1,64.4,30.22,NW,315,2.2,3.8,85,0.00,,,0.12,pywws,2013-09-13 11:49:00,
2013-09-13 12:54:00,69.1,65.0,30.22,NW,315,0.0,0.0,87,0.00,,,0.12,pywws,2013-09-13 11:54:00,
2013-09-13 13:00:00,68.7,64.7,30.22,SW,225,1.6,3.8,87,0.00,,,0.12,pywws,2013-09-13 12:00:00,
2013-09-13 13:06:00,68.2,65.1,30.22,West,270,0.7,3.1,90,0.00,,,0.12,pywws,2013-09-13 12:06:00,
2013-09-13 13:11:00,68.0,65.3,30.22,WNW,292,1.6,3.1,91,0.00,,,0.12,pywws,2013-09-13 12:11:00,
2013-09-13 13:17:00,68.2,65.8,30.22,SW,225,0.0,0.0,92,0.00,,,0.12,pywws,2013-09-13 12:17:00,
2013-09-13 13:22:00,68.2,65.4,30.22,WNW,292,0.0,2.2,91,0.00,,,0.12,pywws,2013-09-13 12:22:00,
2013-09-13 13:28:00,68.0,65.6,30.22,East,90,0.0,0.0,92,0.00,,,0.12,pywws,2013-09-13 12:28:00,
2013-09-13 13:34:00,67.6,65.2,30.22,East,90,0.0,0.7,92,0.00,,,0.12,pywws,2013-09-13 12:34:00,
2013-09-13 13:39:00,67.1,65.0,30.22,SW,225,0.0,1.6,93,0.02,,,0.14,pywws,2013-09-13 12:39:00,
2013-09-13 13:45:00,66.6,65.1,30.22,North,0,0.0,0.0,95,0.04,,,0.15,pywws,2013-09-13 12:45:00,
2013-09-13 13:50:00,66.2,65.0,30.22,NW,315,0.0,0.0,96,0.05,,,0.17,pywws,2013-09-13 12:50:00,
2013-09-13 13:56:00,66.0,65.1,30.21,East,90,0.0,0.0,97,0.11,,,0.22,pywws,2013-09-13 12:56:00,
2013-09-13 14:02:00,66.2,65.9,30.21,NW,315,0.0,0.0,99,0.12,,,0.24,pywws,2013-09-13 13:02:00,
2013-09-13 14:07:00,66.6,66.3,30.21,SW,225,0.7,1.6,99,0.12,,,0.24,pywws,2013-09-13 13:07:00,
2013-09-13 14:13:00,66.7,66.4,30.21,East,90,0.0,0.7,99,0.12,,,0.24,pywws,2013-09-13 13:13:00,
2013-09-13 14:18:00,66.7,66.4,30.21,West,270,0.7,1.6,99,0.12,,,0.24,pywws,2013-09-13 13:18:00,
2013-09-13 14:24:00,66.2,65.9,30.21,West,270,0.7,3.8,99,0.12,,,0.24,pywws,2013-09-13 13:24:00,
2013-09-13 14:29:00,65.8,65.6,30.21,NW,315,0.0,0.0,99,0.12,,,0.24,pywws,2013-09-13 13:29:00,
2013-09-13 14:35:00,66.0,65.7,30.21,NNE,22,0.0,0.0,99,0.12,,,0.24,pywws,2013-09-13 13:35:00,
2013-09-13 14:41:00,66.2,65.9,30.22,North,0,0.0,0.0,99,0.09,,,0.24,pywws,2013-09-13 13:41:00,
2013-09-13 14:46:00,66.0,65.7,30.21,West,270,0.0,0.0,99,0.07,,,0.24,pywws,2013-09-13 13:46:00,
2013-09-13 14:52:00,65.8,65.6,30.21,West,270,0.0,0.0,99,0.07,,,0.24,pywws,2013-09-13 13:52:00,
2013-09-13 14:57:00,65.8,65.6,30.21,East,90,0.7,2.2,99,0.01,,,0.24,pywws,2013-09-13 13:57:00,
2013-09-13 15:03:00,65.7,65.4,30.20,East,90,0.7,3.1,99,0.00,,,0.24,pywws,2013-09-13 14:03:00,
2013-09-13 15:09:00,65.3,65.0,30.20,NE,45,0.7,1.6,99,0.00,,,0.24,pywws,2013-09-13 14:09:00,
2013-09-13 15:14:00,65.1,64.8,30.20,East,90,0.0,0.0,99,0.00,,,0.24,pywws,2013-09-13 14:14:00,
2013-09-13 15:20:00,65.1,64.8,30.20,NE,45,0.0,0.0,99,0.00,,,0.24,pywws,2013-09-13 14:20:00,
2013-09-13 15:26:00,64.9,64.7,30.20,East,90,2.2,4.5,99,0.00,,,0.24,pywws,2013-09-13 14:26:00,
2013-09-13 15:31:00,64.6,64.3,30.19,NE,45,0.0,0.0,99,0.00,,,0.24,pywws,2013-09-13 14:31:00,
2013-09-13 15:37:00,64.4,64.1,30.20,North,0,0.0,0.7,99,0.01,,,0.25,pywws,2013-09-13 14:37:00,
2013-09-13 15:42:00,64.0,63.8,30.20,West,270,0.0,0.0,99,0.02,,,0.26,pywws,2013-09-13 14:42:00,
2013-09-13 15:48:00,63.9,63.6,30.20,SW,225,0.0,0.0,99,0.04,,,0.27,pywws,2013-09-13 14:48:00,
2013-09-13 15:54:00,63.5,63.2,30.19,East,90,0.0,1.6,99,0.04,,,0.27,pywws,2013-09-13 14:54:00,
2013-09-13 15:59:00,63.7,63.4,30.20,West,270,0.0,0.0,99,0.04,,,0.27,pywws,2013-09-13 14:59:00,
2013-09-13 16:05:00,63.3,63.0,30.19,SW,225,0.0,0.0,99,0.04,,,0.27,pywws,2013-09-13 15:05:00,
2013-09-13 16:10:00,63.1,62.9,30.19,NE,45,0.0,0.0,99,0.04,,,0.27,pywws,2013-09-13 15:10:00,
2013-09-13 16:16:00,63.1,62.9,30.19,West,270,0.0,0.0,99,0.05,,,0.28,pywws,2013-09-13 15:16:00,
2013-09-13 16:22:00,63.1,62.9,30.19,NE,45,0.0,0.0,99,0.05,,,0.28,pywws,2013-09-13 15:22:00,
2013-09-13 16:27:00,63.1,62.9,30.19,East,90,0.0,1.6,99,0.05,,,0.28,pywws,2013-09-13 15:27:00,
2013-09-13 16:33:00,63.1,62.9,30.19,North,0,0.0,0.0,99,0.05,,,0.28,pywws,2013-09-13 15:33:00,
2013-09-13 16:38:00,63.0,62.7,30.19,East,90,0.0,0.0,99,0.02,,,0.28,pywws,2013-09-13 15:38:00,
2013-09-13 16:44:00,62.8,62.5,30.19,East,90,0.0,0.7,99,0.02,,,0.28,pywws,2013-09-13 15:44:00,
2013-09-13 16:50:00,62.6,62.3,30.19,East,90,0.0,0.0,99,0.01,,,0.28,pywws,2013-09-13 15:50:00,
2013-09-13 16:55:00,62.6,62.3,30.19,SW,225,0.0,0.0,99,0.01,,,0.28,pywws,2013-09-13 15:55:00,
2013-09-13 17:01:00,62.6,62.3,30.19,West,270,0.0,0.0,99,0.02,,,0.30,pywws,2013-09-13 16:01:00,
2013-09-13 17:06:00,62.4,62.1,30.19,West,270,0.0,1.6,99,0.02,,,0.30,pywws,2013-09-13 16:06:00,
2013-09-13 17:12:00,62.2,62.0,30.19,SE,135,0.0,0.0,99,0.02,,,0.30,pywws,2013-09-13 16:12:00,
2013-09-13 17:18:00,62.1,61.8,30.19,SE,135,0.0,0.0,99,0.01,,,0.30,pywws,2013-09-13 16:18:00,
2013-09-13 17:23:00,61.9,61.6,30.19,East,90,0.0,0.0,99,0.01,,,0.30,pywws,2013-09-13 16:23:00,
2013-09-13 17:29:00,61.9,61.6,30.18,East,90,0.0,1.6,99,0.01,,,0.30,pywws,2013-09-13 16:29:00,
2013-09-13 17:34:00,61.7,61.4,30.18,NE,45,0.7,1.6,99,0.01,,,0.30,pywws,2013-09-13 16:34:00,
2013-09-13 17:40:00,61.7,61.4,30.17,East,90,0.0,2.2,99,0.02,,,0.31,pywws,2013-09-13 16:40:00,
2013-09-13 17:46:00,61.5,61.2,30.17,NE,45,0.0,0.0,99,0.02,,,0.31,pywws,2013-09-13 16:46:00,
2013-09-13 17:51:00,61.3,61.1,30.17,North,0,0.0,0.0,99,0.02,,,0.31,pywws,2013-09-13 16:51:00,
2013-09-13 17:57:00,61.3,61.1,30.17,ENE,68,0.0,1.6,99,0.01,,,0.31,pywws,2013-09-13 16:57:00,
2013-09-13 18:02:00,61.3,61.1,30.17,NE,45,0.0,1.6,99,0.01,,,0.31,pywws,2013-09-13 17:02:00,
2013-09-13 18:08:00,61.3,61.1,30.17,North,0,0.0,0.7,99,0.02,,,0.32,pywws,2013-09-13 17:08:00,
2013-09-13 18:14:00,61.2,60.9,30.17,NE,45,0.0,0.0,99,0.04,,,0.33,pywws,2013-09-13 17:14:00,
2013-09-13 18:19:00,61.2,60.9,30.16,North,0,0.0,0.0,99,0.04,,,0.33,pywws,2013-09-13 17:19:00,
2013-09-13 18:25:00,61.2,60.9,30.17,North,0,0.0,0.0,99,0.05,,,0.34,pywws,2013-09-13 17:25:00,
2013-09-13 18:30:00,61.2,60.9,30.16,East,90,0.0,0.0,99,0.05,,,0.34,pywws,2013-09-13 17:30:00,
2013-09-13 18:36:00,61.2,60.9,30.16,East,90,0.0,0.0,99,0.05,,,0.34,pywws,2013-09-13 17:36:00,
2013-09-13 18:42:00,61.0,60.7,30.16,NE,45,0.0,0.7,99,0.04,,,0.34,pywws,2013-09-13 17:42:00,
2013-09-13 18:47:00,61.0,60.7,30.16,NE,45,0.0,0.7,99,0.05,,,0.35,pywws,2013-09-13 17:47:00,
2013-09-13 18:53:00,61.0,60.7,30.15,NE,45,0.0,1.6,99,0.06,,,0.37,pywws,2013-09-13 17:53:00,
2013-09-13 18:58:00,61.0,60.7,30.15,NE,45,0.0,0.0,99,0.07,,,0.38,pywws,2013-09-13 17:58:00,
2013-09-13 19:04:00,61.0,60.7,30.15,East,90,0.0,0.0,99,0.08,,,0.39,pywws,2013-09-13 18:04:00,
2013-09-13 19:10:00,61.0,60.7,30.15,East,90,0.0,0.0,99,0.09,,,0.41,pywws,2013-09-13 18:10:00,
2013-09-13 19:15:00,61.2,60.9,30.14,NE,45,0.0,0.7,99,0.08,,,0.41,pywws,2013-09-13 18:15:00,
2013-09-13 19:21:00,61.2,60.9,30.14,East,90,0.0,0.0,99,0.09,,,0.43,pywws,2013-09-13 18:21:00,
2013-09-13 19:26:00,61.2,60.9,30.14,NE,45,0.0,0.0,99,0.09,,,0.44,pywws,2013-09-13 18:26:00,
2013-09-13 19:32:00,61.0,60.7,30.14,NE,45,0.0,0.0,99,0.11,,,0.45,pywws,2013-09-13 18:32:00,
2013-09-13 19:38:00,61.0,60.7,30.14,NE,45,0.0,0.0,99,0.12,,,0.46,pywws,2013-09-13 18:38:00,
2013-09-13 19:43:00,61.0,60.7,30.14,North,0,0.0,0.0,99,0.14,,,0.48,pywws,2013-09-13 18:43:00,
2013-09-13 19:49:00,61.0,60.7,30.14,NE,45,0.0,0.0,99,0.14,,,0.50,pywws,2013-09-13 18:49:00,
2013-09-13 19:54:00,61.0,60.7,30.15,NE,45,0.0,0.0,99,0.14,,,0.51,pywws,2013-09-13 18:54:00,
2013-09-13 20:00:00,61.0,60.7,30.14,NE,45,0.7,2.2,99,0.14,,,0.52,pywws,2013-09-13 19:00:00,
2013-09-13 20:06:00,61.0,60.7,30.14,NE,45,0.7,2.2,99,0.13,,,0.52,pywws,2013-09-13 19:06:00,
2013-09-13 20:11:00,60.8,60.5,30.14,NE,45,0.0,2.2,99,0.14,,,0.56,pywws,2013-09-13 19:11:00,
2013-09-13 20:17:00,60.8,60.5,30.13,East,90,2.2,3.8,99,0.15,,,0.57,pywws,2013-09-13 19:17:00,
2013-09-13 20:22:00,60.6,60.3,30.13,East,90,0.0,2.2,99,0.15,,,0.59,pywws,2013-09-13 19:22:00,
2013-09-13 20:28:00,60.6,60.3,30.13,East,90,0.0,0.7,99,0.15,,,0.60,pywws,2013-09-13 19:28:00,
2013-09-13 20:34:00,60.6,60.3,30.12,North,0,0.0,1.6,99,0.15,,,0.61,pywws,2013-09-13 19:34:00,
2013-09-13 20:39:00,60.6,60.3,30.12,East,90,0.0,0.0,99,0.15,,,0.63,pywws,2013-09-13 19:39:00,
2013-09-13 20:45:00,60.6,60.3,30.12,NE,45,0.7,2.2,99,0.15,,,0.64,pywws,2013-09-13 19:45:00,
2013-09-13 20:50:00,60.8,60.5,30.11,NE,45,0.0,0.7,99,0.15,,,0.65,pywws,2013-09-13 19:50:00,
2013-09-13 20:56:00,60.8,60.5,30.11,NE,45,0.0,0.7,99,0.13,,,0.65,pywws,2013-09-13 19:56:00,
2013-09-13 21:02:00,60.8,60.5,30.11,East,90,0.0,0.0,99,0.14,,,0.66,pywws,2013-09-13 20:02:00,
2013-09-13 21:07:00,61.0,60.7,30.11,NE,45,0.0,0.0,99,0.14,,,0.66,pywws,2013-09-13 20:07:00,
2013-09-13 21:13:00,61.0,60.7,30.11,NW,315,0.0,0.0,99,0.11,,,0.67,pywws,2013-09-13 20:13:00,
2013-09-13 21:18:00,61.0,60.7,30.10,West,270,0.0,0.7,99,0.09,,,0.67,pywws,2013-09-13 20:18:00,
2013-09-13 21:24:00,61.2,60.9,30.10,East,90,0.0,0.7,99,0.09,,,0.69,pywws,2013-09-13 20:24:00,
2013-09-13 21:30:00,61.3,61.1,30.10,WNW,292,0.0,0.7,99,0.08,,,0.69,pywws,2013-09-13 20:30:00,
2013-09-13 21:35:00,61.5,61.2,30.09,South,180,0.0,2.2,99,0.08,,,0.70,pywws,2013-09-13 20:35:00,
2013-09-13 21:41:00,61.5,61.2,30.09,WSW,248,0.7,3.1,99,0.07,,,0.70,pywws,2013-09-13 20:41:00,
2013-09-13 21:46:00,61.5,61.2,30.09,SSW,202,0.0,0.0,99,0.07,,,0.71,pywws,2013-09-13 20:46:00,
2013-09-13 21:52:00,61.7,61.4,30.09,NW,315,0.0,1.6,99,0.06,,,0.71,pywws,2013-09-13 20:52:00,
2013-09-13 21:58:00,61.7,61.4,30.08,East,90,0.0,2.2,99,0.05,,,0.71,pywws,2013-09-13 20:58:00,
2013-09-13 22:03:00,61.7,61.4,30.07,SW,225,0.7,2.2,99,0.05,,,0.71,pywws,2013-09-13 21:03:00,
2013-09-13 22:09:00,61.9,61.6,30.07,NW,315,0.0,1.6,99,0.06,,,0.72,pywws,2013-09-13 21:09:00,
2013-09-13 22:14:00,61.7,61.4,30.07,West,270,0.0,5.4,99,0.05,,,0.72,pywws,2013-09-13 21:14:00,
2013-09-13 22:20:00,61.7,61.4,30.06,NE,45,0.7,3.8,99,0.05,,,0.72,pywws,2013-09-13 21:20:00,
2013-09-13 22:25:00,61.9,61.6,30.06,NW,315,0.0,2.2,99,0.04,,,0.72,pywws,2013-09-13 21:25:00,
2013-09-13 22:31:00,61.7,61.4,30.06,West,270,1.6,4.5,99,0.04,,,0.72,pywws,2013-09-13 21:31:00,
2013-09-13 22:37:00,61.9,61.6,30.06,SW,225,1.6,4.5,99,0.04,,,0.73,pywws,2013-09-13 21:37:00,
2013-09-13 22:42:00,61.9,61.6,30.06,West,270,2.2,5.4,99,0.04,,,0.73,pywws,2013-09-13 21:42:00,
2013-09-13 22:48:00,61.9,61.6,30.05,NW,315,0.0,0.7,99,0.02,,,0.73,pywws,2013-09-13 21:48:00,
2013-09-13 22:53:00,61.9,61.6,30.05,NW,315,0.0,3.1,99,0.04,,,0.74,pywws,2013-09-13 21:53:00,
2013-09-13 22:59:00,61.9,61.6,30.05,South,180,1.6,4.5,99,0.04,,,0.74,pywws,2013-09-13 21:59:00,
2013-09-13 23:05:00,61.9,61.6,30.05,South,180,1.6,4.5,99,0.04,,,0.74,pywws,2013-09-13 22:05:00,
2013-09-13 23:10:00,61.7,61.4,30.04,SW,225,0.0,1.6,99,0.04,,,0.76,pywws,2013-09-13 22:10:00,
2013-09-13 23:16:00,61.7,61.4,30.04,South,180,2.2,6.0,99,0.05,,,0.77,pywws,2013-09-13 22:16:00,
2013-09-13 23:21:00,61.7,61.4,30.04,West,270,1.6,3.8,99,0.05,,,0.77,pywws,2013-09-13 22:21:00,
2013-09-13 23:27:00,61.7,61.4,30.03,SE,135,0.7,2.2,99,0.05,,,0.77,pywws,2013-09-13 22:27:00,
2013-09-13 23:33:00,61.7,61.4,30.03,SE,135,0.7,2.2,99,0.05,,,0.77,pywws,2013-09-13 22:33:00,
2013-09-13 23:38:00,61.5,61.2,30.03,NW,315,0.0,1.6,99,0.04,,,0.77,pywws,2013-09-13 22:38:00,
2013-09-13 23:44:00,61.5,61.2,30.03,West,270,0.0,2.2,99,0.05,,,0.78,pywws,2013-09-13 22:44:00,
2013-09-13 23:50:00,55.8,55.5,30.02,NW,315,0.0,0.7,99,0.04,,,0.78,pywws,2013-09-13 22:50:00,
2013-09-13 23:55:00,61.5,61.2,30.02,ESE,112,0.0,1.6,99,0.04,,,0.00,pywws,2013-09-13 22:55:00,